Weather in Karpacz

Poland     50°46′36″N   15°45′31″E
temp.,
°C
wind,
m/s
gust,
m/s
humid.,
%
clouds,
%
prec.,
mm/h
press.,
hPa
HPBL,
m
10 may, mon
mon1023:00+9s499374 0.0 1014261
02:00+8s5129338 0.0 1012412
05:00+7s4128839 0.0 1012452
08:00+10s59735 0.0 1012449
11:00+15s46635 0.0 1011579
14:00+18s345762 0.0 1011773
17:00+18s45639 0.0 1011804
20:00+14s378758 0.0 1012288
11 may, tue
tue1123:00+11s269464 0.0 1011197
02:00+10s269443 0.0 1010221
05:00+10s3109399 0.0 1008383
08:00+13s5107734 0.0 1007581
11:00+17s4763100 0.0 1007789
14:00+18s5860100 0.0 10071130
17:00+19s59615 0.0 10061123
20:00+16sse398220 0.0 1006483
12 may, wed
wed1223:00+12sse229667 0.0 100741
02:00+13s31192100 0.0 1006519
05:00+11s259745 0.0 1006148
08:00+14s248992 0.0 1005450
11:00+17sse247366 0.0 1005819
14:00+18ene246696 1.3 10041355
17:00+16ne348441 5.1 1003533
20:00+13n3597100 10.3 1003236
13 may, thu
thu1323:00+11nne229997 2.9 1003152
02:00+11nne229994 3.1 1002133
05:00+9ne2399100 0.1 1002185
08:00+9ne239244 0.1 1002309
11:00+12ne337459 0.0 1001735
14:00+10ne2285100 0.1 1002599
17:00+11ne1285100 0.1 1002538
20:00+9n0193100 0.3 100260
14 may, fri
fri1423:00+9wnw119496 0.1 100326
02:00+9wsw119599 0.2 100342
05:00+8wsw119686 0.1 100344
08:00+9sw1193100 0.2 1004252
11:00+9ssw1297100 0.7 1006197
14:00+9wsw1297100 1.9 1007207
17:00+9w129699 0.8 1008255
20:00+8wnw1298100 1.1 1010116